Location: Berlijn
(52.5200°N, 13.4050°E)
Time: 01:33:42
(UTC+02:00)

Envisat - Pass Details

Date: 29 September 2021
Orbit: 764 x 766 km, 98.2° (Epoch: 20 October)

Event Time Altitude Azimuth Distance (km) Brightness Sun altitude
Rises 05:06:32 0° 25° (NNE) 3,245 7.0 -18.4°
Reaches altitude 10° 05:09:30 10° 42° (NE) 2,312 6.4 -18.0°
Maximum altitude 05:13:09 20° 88° (E) 1,738 5.8 -17.4°
Drops below altitude 10° 05:16:47 10° 135° (SE) 2,299 5.8 -16.9°
Sets 05:19:42 0° 152° (SSE) 3,220 6.4 -16.5°
